Holdrege, NE

6:47 PM CDT on July 21, 2017 (GMT -0500)
Brewster

Weather History for KHDE - January, 2014

Change the Weather History Date:

Wednesday, January 29, 2014

  Actual Average Record
Temperature  
Mean Temperature 28 °F -  
Max Temperature 52 °F 38 °F 65 °F (1986)
Min Temperature 4 °F 14 °F -13 °F (1949)
Degree Days  
Heating Degree Days 37    
Moisture  
Dew Point 5 °F    
Average Humidity 40    
Maximum Humidity 65    
Minimum Humidity 15    
Precipitation  
Precipitation 0.00 in - - ()
Sea Level Pressure  
Sea Level Pressure 29.85 in    
Wind  
Wind Speed 8 mph (SW)    
Max Wind Speed 21 mph    
Max Gust Speed 26 mph    
Visibility 10 miles    
Events      
Averages and records for this station are not official NWS values.
T = Trace of Precipitation, MM = Missing Value Source: NWS Daily Summary

Daily Weather History Graph

Daily Weather History Graph

Search for Another Location

Airport or City:

Trip Planner

Search our weather history database for the weather conditions in past years. The results will help you decide how hot, cold, wet, or windy it might be!

Date:

Astronomy

Jan. 29, 2014 Rise Set
Actual Time 7:49 AM CST 5:52 PM CST
Civil Twilight 7:20 AM CST 6:21 PM CST
Nautical Twilight 6:47 AM CST 6:53 PM CST
Astronomical Twilight 6:15 AM CST 7:25 PM CST
Moon 6:27 AM CST (1/29) 4:53 PM CST (1/29)
Length of Visible Light 11h 00m
Length of Day
10h 02m
Waning Crescent, 2% of the Moon is Illuminated
Jan 29
Waning Crescent
Jan 30
New
Feb 6
First Quarter
Feb 14
Full
Feb 22
Last Quarter

Hourly Weather History & Observations

Time (CST) Temp. Windchill Dew Point Humidity Pressure Visibility Wind Dir Wind Speed Gust Speed Precip Events Conditions
12:15 AM 10.4 °F 0.8 °F -5.1 °F 50% 30.12 in 10.0 mi SSW 5.8 mph - N/A   Clear
12:35 AM 10.9 °F 0.2 °F -4.5 °F 50% 30.12 in 10.0 mi SSW 6.9 mph - N/A   Clear
12:55 AM 9.7 °F -0.1 °F -5.4 °F 51% 30.11 in 10.0 mi SSW 5.8 mph - N/A   Clear
1:15 AM 4.8 °F -4.3 °F -6.3 °F 60% 30.10 in 10.0 mi SSW 4.6 mph - N/A   Clear
1:35 AM 8.4 °F -2.8 °F -4.9 °F 55% 30.10 in 10.0 mi SW 6.9 mph - N/A   Clear
1:55 AM 10.0 °F -0.9 °F -4.7 °F 51% 30.09 in 10.0 mi SW 6.9 mph - N/A   Clear
2:15 AM 10.0 °F 0.4 °F -4.4 °F 52% 30.08 in 10.0 mi SSW 5.8 mph - N/A   Clear
2:35 AM 8.6 °F -2.6 °F -4.5 °F 55% 30.08 in 10.0 mi SSW 6.9 mph - N/A   Clear
2:55 AM 8.1 °F -2.0 °F -4.9 °F 56% 30.07 in 10.0 mi SSW 5.8 mph - N/A   Clear
3:15 AM 8.2 °F -0.3 °F -4.5 °F 56% 30.07 in 10.0 mi SW 4.6 mph - N/A   Clear
3:35 AM 8.8 °F 0.4 °F -3.8 °F 57% 30.05 in 10.0 mi SW 4.6 mph - N/A   Clear
3:55 AM 10.2 °F 3.8 °F -2.6 °F 56% 30.04 in 10.0 mi SW 3.5 mph - N/A   Clear
4:15 AM 10.0 °F 1.8 °F -2.4 °F 57% 30.03 in 10.0 mi SSW 4.6 mph - N/A   Clear
4:35 AM 9.1 °F 2.6 °F -2.7 °F 59% 30.02 in 10.0 mi SW 3.5 mph - N/A   Clear
4:55 AM 9.5 °F 3.0 °F -2.2 °F 59% 30.02 in 10.0 mi SW 3.5 mph - N/A   Clear
5:15 AM 10.4 °F 4.0 °F -1.3 °F 59% 30.01 in 10.0 mi SW 3.5 mph - N/A   Clear
5:35 AM 10.4 °F - -1.3 °F 59% 30.00 in 10.0 mi Calm Calm - N/A   Clear
5:55 AM 11.1 °F 3.1 °F 0.1 °F 61% 30.00 in 10.0 mi SW 4.6 mph - N/A   Clear
6:15 AM 10.0 °F 1.8 °F -0.4 °F 63% 29.99 in 10.0 mi SW 4.6 mph - N/A   Clear
6:35 AM 10.0 °F 0.4 °F -0.4 °F 63% 29.99 in 10.0 mi SW 5.8 mph - N/A   Clear
6:55 AM 9.9 °F -4.0 °F -0.4 °F 63% 29.98 in 10.0 mi SW 10.4 mph - N/A   Clear
7:15 AM 9.3 °F 2.8 °F -0.4 °F 65% 29.98 in 10.0 mi WSW 3.5 mph - N/A   Clear
7:35 AM 10.9 °F 1.4 °F 1.0 °F 64% 29.98 in 10.0 mi SW 5.8 mph - N/A   Clear
7:55 AM 10.2 °F 0.6 °F 0.3 °F 64% 29.98 in 10.0 mi SW 5.8 mph - N/A   Clear
8:15 AM 11.1 °F 0.4 °F 1.4 °F 65% 29.97 in 10.0 mi SW 6.9 mph - N/A   Clear
8:35 AM 11.7 °F 1.1 °F 1.8 °F 65% 29.97 in 10.0 mi SW 6.9 mph - N/A   Clear
8:55 AM 14.2 °F 5.3 °F 3.6 °F 63% 29.97 in 10.0 mi SW 5.8 mph - N/A   Clear
9:15 AM 17.8 °F 7.5 °F 5.0 °F 57% 29.97 in 10.0 mi SW 8.1 mph - N/A   Clear
9:35 AM 19.9 °F 11.1 °F 5.9 °F 55% 29.96 in 10.0 mi SW 6.9 mph - N/A   Clear
9:55 AM 22.8 °F 12.2 °F 6.6 °F 50% 29.96 in 10.0 mi SW 10.4 mph - N/A   Clear
10:15 AM 24.4 °F 14.2 °F 6.4 °F 46% 29.95 in 10.0 mi SW 10.4 mph - N/A   Clear
10:35 AM 27.1 °F 16.9 °F 7.2 °F 43% 29.95 in 10.0 mi SW 11.5 mph - N/A   Clear
10:55 AM 29.1 °F 19.4 °F 7.7 °F 41% 29.93 in 10.0 mi SW 11.5 mph - N/A   Clear
11:15 AM 32.0 °F 23.6 °F 7.5 °F 36% 29.93 in 10.0 mi SW 10.4 mph - N/A   Clear
11:35 AM 32.4 °F 24.0 °F 7.5 °F 35% 29.92 in 10.0 mi SW 10.4 mph - N/A   Clear
11:55 AM 34.2 °F 25.7 °F 7.5 °F 33% 29.91 in 10.0 mi SW 11.5 mph 17.3 mph N/A   Clear
12:15 PM 35.8 °F 27.3 °F 7.3 °F 31% 29.90 in 10.0 mi SW 12.7 mph - N/A   Clear
12:35 PM 37.9 °F 30.5 °F 8.4 °F 30% 29.87 in 10.0 mi SW 11.5 mph - N/A   Clear
12:55 PM 40.5 °F 33.6 °F 8.6 °F 27% 29.86 in 10.0 mi SW 11.5 mph - N/A   Clear
1:15 PM 42.8 °F 35.8 °F 8.4 °F 24% 29.85 in 10.0 mi SW 13.8 mph 17.3 mph N/A   Clear
1:35 PM 43.9 °F 37.5 °F 8.2 °F 23% 29.83 in 10.0 mi SW 12.7 mph 19.6 mph N/A   Clear
1:55 PM 45.7 °F 39.8 °F 7.7 °F 21% 29.82 in 10.0 mi SW 12.7 mph 17.3 mph N/A   Clear
2:15 PM 46.6 °F - 7.7 °F 21% 29.80 in 10.0 mi SW 12.7 mph 19.6 mph N/A   Clear
2:35 PM 47.3 °F - 8.1 °F 20% 29.78 in 10.0 mi SSW 13.8 mph 20.7 mph N/A   Clear
2:55 PM 49.1 °F - 7.3 °F 18% 29.78 in 10.0 mi SW 13.8 mph - N/A   Clear
3:15 PM 50.4 °F - 5.9 °F 16% 29.76 in 10.0 mi SSW 15.0 mph 21.9 mph N/A   Clear
3:35 PM 51.3 °F - 5.7 °F 16% 29.76 in 10.0 mi SW 11.5 mph 23.0 mph N/A   Clear
3:55 PM 51.8 °F - 4.6 °F 15% 29.76 in 10.0 mi SW 12.7 mph - N/A   Clear
4:15 PM 52.0 °F - 5.2 °F 15% 29.74 in 10.0 mi WSW 9.2 mph - N/A   Clear
4:35 PM 51.8 °F - 5.7 °F 15% 29.73 in 10.0 mi SW 6.9 mph - N/A   Clear
4:55 PM 51.3 °F - 6.8 °F 17% 29.72 in 10.0 mi SW 8.1 mph - N/A   Clear
5:15 PM 49.8 °F - 7.7 °F 18% 29.70 in 10.0 mi SSW 9.2 mph - N/A   Clear
5:35 PM 47.5 °F - 7.9 °F 20% 29.69 in 10.0 mi South 10.4 mph - N/A   Clear
5:50 PM 45.7 °F 40.6 °F 8.1 °F 22% 29.69 in 10.0 mi South 10.4 mph - N/A   Clear
6:15 PM 42.4 °F 36.5 °F 7.3 °F 24% 29.67 in 10.0 mi South 10.4 mph - N/A   Clear
6:35 PM 37.9 °F 30.9 °F 6.8 °F 27% 29.67 in 10.0 mi South 10.4 mph - N/A   Clear
6:55 PM 37.6 °F 30.0 °F 7.5 °F 29% 29.65 in 10.0 mi South 11.5 mph - N/A   Clear
7:15 PM 40.5 °F 32.8 °F 6.8 °F 25% 29.64 in 10.0 mi SSW 13.8 mph - N/A   Clear
7:35 PM 39.6 °F 31.7 °F 5.9 °F 25% 29.64 in 10.0 mi SSW 13.8 mph - N/A   Clear
7:55 PM 40.1 °F 32.0 °F 6.3 °F 25% 29.63 in 10.0 mi SSW 15.0 mph 20.7 mph N/A   Clear
8:15 PM 41.0 °F 33.1 °F 7.0 °F 25% 29.62 in 10.0 mi South 15.0 mph - N/A   Clear
8:35 PM 39.6 °F 31.7 °F 7.3 °F 26% 29.60 in 10.0 mi South 13.8 mph - N/A   Clear
8:55 PM 39.0 °F 31.0 °F 8.6 °F 29% 29.60 in 10.0 mi South 13.8 mph - N/A   Clear
9:15 PM 39.4 °F 31.1 °F 9.7 °F 29% 29.59 in 10.0 mi South 15.0 mph - N/A   Clear
9:35 PM 40.8 °F 32.0 °F 11.3 °F 30% 29.58 in 10.0 mi SSW 18.4 mph - N/A   Scattered Clouds
9:55 PM 41.4 °F 32.4 °F 13.1 °F 32% 29.57 in 10.0 mi SSW 19.6 mph 24.2 mph N/A   Scattered Clouds
10:15 PM 40.5 °F 32.1 °F 14.7 °F 35% 29.56 in 10.0 mi South 16.1 mph 24.2 mph N/A   Mostly Cloudy
10:35 PM 40.5 °F 31.8 °F 17.6 °F 40% 29.55 in 10.0 mi SSW 17.3 mph - N/A   Overcast
10:55 PM 40.6 °F 31.7 °F 18.1 °F 40% 29.53 in 10.0 mi South 18.4 mph 24.2 mph N/A   Overcast
11:15 PM 40.6 °F 31.2 °F 17.6 °F 39% 29.49 in 10.0 mi South 20.7 mph 26.5 mph N/A   Mostly Cloudy
11:35 PM 40.6 °F 31.7 °F 15.8 °F 37% 29.48 in 10.0 mi SSW 18.4 mph 25.3 mph N/A   Scattered Clouds
11:55 PM 41.5 °F 33.2 °F 14.2 °F 33% 29.48 in 10.0 mi South 17.3 mph 23.0 mph N/A   Mostly Cloudy